Location: Erdweis
(48.5167°N, 15.3500°E)
Time: 16:23:39
(UTC+00:00)

CENTAUR R/B - Pass Details

Date: 18 September 2020
Orbit: 753 x 1435 km, 63.5° (Epoch: 26 October)

Event Time Altitude Azimuth Distance (km) Brightness Sun altitude
Rises 19:24:24 0° 318° (NW) 4,102 7.0 -22.9°
Reaches altitude 10° 19:27:01 10° 318° (NW) 3,220 6.2 -23.2°
Maximum altitude 19:35:01 88° 231° (SW) 1,369 3.1 -24.3°
Enters shadow 19:38:32 42° 143° (SE) 1,909 3.5 -24.8°
